This demonstration page uses our WeatherBlox Daily Observations layout. Learn more.

Left ArrowRight Arrow

Hourly Observations for April 5, 2015

Temp ( °F °C ) Dew Point ( °F °C ) Humidity (%) Winds ( mph kmh ) Pressure ( in mb ) Visibility ( mi km ) Precip ( " mm )
12:16 am 00:16 Clear 45 7 23 -5 42 42 SW 10 17 30.24 1024 10 16.0934 N/A
12:36 am 00:36 Clear 45 7 23 -5 42 42 SW 9 15 30.24 1024 10 16.0934 N/A
12:55 am 00:55 Clear 45 7 21 -6 39 39 SW 10 17 30.24 1024 10 16.0934 N/A
1:16 am 01:16 Clear 45 7 21 -6 39 39 SW 8 13 30.24 1024 10 16.0934 N/A
1:36 am 01:36 Clear 43 6 21 -6 42 42 SW 9 15 30.24 1024 10 16.0934 N/A
1:55 am 01:55 Clear 43 6 21 -6 42 42 SSW 8 13 30.24 1024 10 16.0934 N/A
2:16 am 02:16 Clear 41 5 23 -5 49 49 S 7 11 30.24 1024 10 16.0934 N/A
2:36 am 02:36 Clear 39 4 23 -5 52 52 S 6 9 30.27 1025 10 16.0934 N/A
2:55 am 02:55 Clear 39 4 23 -5 52 52 S 6 9 30.24 1024 10 16.0934 N/A
3:16 am 03:16 Clear 39 4 23 -5 52 52 S 6 9 30.24 1024 10 16.0934 N/A
3:36 am 03:36 Clear 39 4 23 -5 52 52 S 7 11 30.24 1024 10 16.0934 N/A
3:55 am 03:55 Clear 39 4 23 -5 52 52 SSW 8 13 30.24 1024 10 16.0934 N/A
4:16 am 04:16 Clear 39 4 23 -5 52 52 SSW 8 13 30.24 1024 10 16.0934 N/A
4:35 am 04:35 Clear 39 4 23 -5 52 52 SSW 6 9 30.24 1024 10 16.0934 N/A
4:56 am 04:56 Clear 37 3 23 -5 56 56 SSW 6 9 30.24 1024 10 16.0934 N/A
5:16 am 05:16 Clear 37 3 23 -5 56 56 S 5 7 30.24 1024 10 16.0934 N/A
5:35 am 05:35 Clear 37 3 23 -5 56 56 S 5 7 30.24 1024 10 16.0934 N/A
5:56 am 05:56 Clear 36 2 23 -5 60 60 S 5 7 30.24 1024 10 16.0934 N/A
6:16 am 06:16 Clear 36 2 23 -5 60 60 S 6 9 30.24 1024 10 16.0934 N/A
6:35 am 06:35 Clear 36 2 23 -5 60 60 S 6 9 30.24 1024 10 16.0934 N/A
6:56 am 06:56 Clear 34 1 23 -5 65 65 Calm 30.24 1024 10 16.0934 N/A
7:16 am 07:16 Clear 34 1 23 -5 65 65 S 6 9 30.24 1024 10 16.0934 N/A
7:35 am 07:35 Sunny 36 2 23 -5 60 60 S 7 11 30.24 1024 10 16.0934 N/A
7:56 am 07:56 Sunny 36 2 23 -5 60 60 S 7 11 30.27 1025 10 16.0934 N/A
8:15 am 08:15 Sunny 37 3 23 -5 56 56 S 7 11 30.27 1025 10 16.0934 N/A
8:36 am 08:36 Sunny 39 4 23 -5 52 52 S 9 15 30.27 1025 10 16.0934 N/A
8:56 am 08:56 Sunny 41 5 23 -5 49 49 SSW 8 13 30.24 1024 10 16.0934 N/A
9:15 am 09:15 Sunny 43 6 23 -5 46 46 SSW 10 17 30.24 1024 10 16.0934 N/A
9:36 am 09:36 Sunny 46 8 23 -5 40 40 SSW 10 17 30.24 1024 10 16.0934 N/A
9:56 am 09:56 Sunny 48 9 23 -5 37 37 SSW 9 15 30.24 1024 10 16.0934 N/A
10:16 am 10:16 Sunny 50 10 21 -6 32 32 SW 12 19 30.24 1024 10 16.0934 N/A
10:36 am 10:36 Sunny 52 11 19 -7 28 28 SW 15 24 30.24 1024 10 16.0934 N/A
10:55 am 10:55 Sunny 54 12 18 -8 24 24 SW 10 17 30.24 1024 10 16.0934 N/A
11:16 am 11:16 Sunny 55 13 14 -10 19 19 SSW 12 19 30.24 1024 10 16.0934 N/A
11:36 am 11:36 Sunny 57 14 10 -12 15 15 SW 10 17 30.18 1022 10 16.0934 N/A
11:56 am 11:56 Sunny 57 14 10 -12 15 15 SW 9 15 30.18 1022 10 16.0934 N/A
12:16 pm 12:16 Sunny 59 15 10 -12 14 14 SW 7 11 30.18 1022 10 16.0934 N/A
12:35 pm 12:35 Sunny 59 15 5 -15 11 11 WSW 13 20 30.18 1022 10 16.0934 N/A
12:56 pm 12:56 Sunny 59 15 9 -13 13 13 SSW 17 28 30.18 1022 10 16.0934 N/A
1:16 pm 13:16 Sunny 61 16 7 -14 11 11 WSW 16 26 30.18 1022 10 16.0934 N/A
1:35 pm 13:35 Sunny 61 16 9 -13 12 12 SW 14 22 30.18 1022 10 16.0934 N/A
1:56 pm 13:56 Sunny 59 15 9 -13 13 13 SSW 12 19 30.18 1022 10 16.0934 N/A
2:16 pm 14:16 Sunny 61 16 9 -13 12 12 SSW 16 26 30.18 1022 10 16.0934 N/A
2:36 pm 14:36 Sunny 61 16 0 -18 8 8 WSW 8 13 30.15 1021 10 16.0934 N/A
2:56 pm 14:56 Sunny 63 17 -4 -20 6 6 SW 10 17 30.15 1021 10 16.0934 N/A
3:15 pm 15:15 Sunny 63 17 0 -18 8 8 SSW 17 28 30.12 1020 10 16.0934 N/A
3:36 pm 15:36 Sunny 63 17 -9 -23 5 5 WSW 12 19 30.12 1020 10 16.0934 N/A
3:56 pm 15:56 Sunny 64 18 -17 -27 3 3 SW 12 19 30.12 1020 10 16.0934 N/A
4:15 pm 16:15 Sunny 63 17 -29 -34 2 2 WSW 10 17 30.12 1020 10 16.0934 N/A
4:36 pm 16:36 Sunny 64 18 -31 -35 1 1 SSW 14 22 30.09 1019 10 16.0934 N/A
4:56 pm 16:56 Sunny 64 18 -27 -33 2 2 SSW 12 19 30.09 1019 10 16.0934 N/A
5:36 pm 17:36 Sunny 63 17 -33 -36 1 1 WSW 16 26 30.09 1019 10 16.0934 N/A
5:55 pm 17:55 Sunny 63 17 -22 -30 3 3 SSW 13 20 30.09 1019 10 16.0934 N/A
6:16 pm 18:16 Sunny 63 17 -20 -29 3 3 SW 10 17 30.09 1019 10 16.0934 N/A
6:36 pm 18:36 Sunny 63 17 -11 -24 4 4 SW 10 17 30.09 1019 10 16.0934 N/A
6:55 pm 18:55 Sunny 63 17 -22 -30 3 3 SW 10 17 30.09 1019 10 16.0934 N/A
7:16 pm 19:16 Sunny 61 16 -26 -32 2 2 SSW 9 15 30.09 1019 10 16.0934 N/A
7:36 pm 19:36 Sunny 61 16 -9 -23 5 5 S 7 11 30.09 1019 10 16.0934 N/A
7:55 pm 19:55 Sunny 59 15 3 -16 10 10 S 7 11 30.09 1019 10 16.0934 N/A
8:16 pm 20:16 Clear 57 14 5 -15 12 12 S 6 9 30.09 1019 10 16.0934 N/A
8:36 pm 20:36 Clear 54 12 10 -12 18 18 S 6 9 30.12 1020 10 16.0934 N/A
8:55 pm 20:55 Clear 54 12 12 -11 19 19 S 7 11 30.12 1020 10 16.0934 N/A
9:16 pm 21:16 Clear 52 11 14 -10 22 22 S 7 11 30.12 1020 10 16.0934 N/A
9:35 pm 21:35 Clear 52 11 14 -10 22 22 S 5 7 30.12 1020 10 16.0934 N/A
9:56 pm 21:56 Clear 50 10 16 -9 25 25 SSE 7 11 30.12 1020 10 16.0934 N/A
10:16 pm 22:16 Clear 50 10 16 -9 25 25 S 6 9 30.12 1020 10 16.0934 N/A
10:35 pm 22:35 Clear 48 9 16 -9 27 27 S 5 7 30.12 1020 10 16.0934 N/A
10:56 pm 22:56 Clear 48 9 18 -8 29 29 S 8 13 30.12 1020 10 16.0934 N/A
11:16 pm 23:16 Clear 48 9 18 -8 29 29 S 7 11 30.12 1020 10 16.0934 N/A
11:35 pm 23:35 Clear 48 9 16 -9 27 27 S 6 9 30.12 1020 10 16.0934 N/A
11:56 pm 23:56 Clear 48 9 16 -9 27 27 S 5 7 30.12 1020 10 16.0934 N/A

Powered by AerisWeather